logo
Search for airport 
image banner adimage banner adimage banner ad
image banner ad

LLHZ - Herzelia Domestic Airport

Located in Herzliya, Israel

ICAO - LLHZ, IATA -

Data provided by Airmate  

General information

Coordinates: N32°10'50" E34°50'5"
Elevation is 121 feet MSL.
Magnetic variation is 5° East
View others Airports in Tel Aviv District

Operational data

Special qualification required
Current time UTC:
Current local time:
Weather
TAF: TAF LLHZ 251100Z 2512/2612 28010KT 9999 FEW025 BECMG 2515/2517 VRB04KT FEW020 BECMG 2523/2601 SCT025 PROB40 TEMPO 2601/2606 BKN020 BECMG 2607/2609 28010KT TX31/2512Z TN27/2604Z
View NOTAMs / SUP AIP / TFR affecting this airport [VIEW]
Communications frequencies: [VIEW]

Runways:

RWY identifierQFULength (ft)Width (ft)SurfaceLDA (ft)
10104°296359ASPH
28284°296359ASPH

Airport contact information

Other aviation service providers

Flight schools

Sky Aviation

Sky Aviation

Satellite view of LLHZ